Caldwell, NJ

6:18 AM EDT on July 17, 2019 (GMT -0400)
Essex County

Weather History for KCDW - May, 2019

Change the Weather History Date:

Thursday, May 9, 2019

  Actual Average Record
Temperature  
Mean Temperature 56 °F -  
Max Temperature 61 °F 67 °F 91 °F (2000)
Min Temperature 52 °F 42 °F 32 °F (1977)
Degree Days  
Heating Degree Days 8    
Growing Degree Days 6 (Base 50)    
Moisture  
Dew Point 44 °F    
Average Humidity 65    
Maximum Humidity 89    
Minimum Humidity 47    
Precipitation  
Precipitation 0.00 in - - ()
Sea Level Pressure  
Sea Level Pressure 30.30 in    
Wind  
Wind Speed 6 mph (ESE)    
Max Wind Speed 14 mph    
Max Gust Speed 21 mph    
Visibility 10 miles    
Events      
Averages and records for this station are not official NWS values.
T = Trace of Precipitation, MM = Missing Value Source: NWS Daily Summary

Daily Weather History Graph

Daily Weather History Graph

Search for Another Location

Airport or City:

Astronomy

May. 09, 2019 Rise Set
Actual Time 5:46 AM EDT 8:01 PM EDT
Civil Twilight 5:15 AM EDT 8:32 PM EDT
Nautical Twilight 4:37 AM EDT 9:10 PM EDT
Astronomical Twilight 3:56 AM EDT 9:51 PM EDT
Moon 9:38 AM EDT (5/9) No Moon Set
Length of Visible Light 15h 16m
Length of Day
14h 15m
Waxing Crescent, 24% of the Moon is Illuminated
May 9
Waxing Crescent
May 11
First Quarter
May 18
Full
May 26
Last Quarter
Jun 3
New

Hourly Weather History & Observations

Time (EDT) Temp. Dew Point Humidity Pressure Visibility Wind Dir Wind Speed Gust Speed Precip Events Conditions
12:53 AM 55.9 °F 50.0 °F 80% 30.30 in 10.0 mi Calm Calm - N/A   Overcast
1:53 AM 55.0 °F 51.1 °F 86% 30.30 in 10.0 mi Calm Calm - N/A   Overcast
2:53 AM 55.0 °F 50.0 °F 83% 30.31 in 10.0 mi ENE 3.5 mph - N/A   Scattered Clouds
3:53 AM 54.0 °F 50.0 °F 86% 30.31 in 10.0 mi ENE 9.2 mph - N/A   Partly Cloudy
4:53 AM 53.1 °F 50.0 °F 89% 30.31 in 10.0 mi East 9.2 mph - N/A   Clear
5:53 AM 52.0 °F 48.0 °F 86% 30.32 in 10.0 mi ENE 8.1 mph - N/A   Clear
6:53 AM 53.1 °F 44.1 °F 71% 30.35 in 10.0 mi ENE 13.8 mph - N/A   Mostly Cloudy
7:53 AM 54.0 °F 39.0 °F 57% 30.35 in 10.0 mi East 10.4 mph - N/A   Mostly Cloudy
8:53 AM 55.0 °F 36.0 °F 49% 30.35 in 10.0 mi East 11.5 mph - N/A   Overcast
9:53 AM 55.0 °F 37.9 °F 53% 30.34 in 10.0 mi East 12.7 mph 19.6 mph N/A   Overcast
10:53 AM 55.9 °F 39.9 °F 55% 30.34 in 10.0 mi ENE 8.1 mph - N/A   Overcast
11:53 AM 57.9 °F 42.1 °F 56% 30.33 in 10.0 mi East 11.5 mph - N/A   Overcast
12:53 PM 61.0 °F 41.0 °F 48% 30.31 in 10.0 mi SE 9.2 mph 18.4 mph N/A   Overcast
1:53 PM 60.1 °F 41.0 °F 49% 30.32 in 10.0 mi ESE 11.5 mph 20.7 mph N/A   Overcast
2:53 PM 60.1 °F 39.9 °F 47% 30.30 in 10.0 mi SSE 6.9 mph - N/A   Overcast
3:53 PM 59.0 °F 39.0 °F 48% 30.30 in 10.0 mi SSE 9.2 mph - N/A   Overcast
4:53 PM 57.0 °F 39.9 °F 53% 30.30 in 10.0 mi South 8.1 mph - N/A   Overcast
5:53 PM 57.0 °F 41.0 °F 55% 30.29 in 10.0 mi SE 6.9 mph - N/A   Overcast
7:30 PM 55.9 °F 44.1 °F 64% 30.25 in 10.0 mi SE 9.2 mph - N/A   Overcast
7:53 PM 55.9 °F 45.0 °F 67% 30.27 in 10.0 mi ESE 9.2 mph - N/A   Overcast
8:53 PM 55.9 °F 46.0 °F 69% 30.27 in 10.0 mi ESE 6.9 mph - N/A   Overcast
9:53 PM 55.9 °F 46.0 °F 69% 30.25 in 10.0 mi ESE 9.2 mph - N/A   Overcast
10:53 PM 55.9 °F 46.0 °F 69% 30.25 in 10.0 mi ESE 4.6 mph - N/A   Overcast
11:53 PM 55.9 °F 46.9 °F 72% 30.24 in 10.0 mi ESE 6.9 mph - N/A   Overcast